Claiborne Reservoir Weather Center

Moon Phase Calendar



Claiborne Reservoir Water Level
Online Cameras

 


      

Current Conditions in Monroeville
9/18/2021 1:55:20 AM

76°F
Feels Like 78
Clouds
Humidity
96%
Pressure
30.03"
Wind
3.8 mph (SSE)
Dew Point
75°F
UV Index
0/10 (Low)
Visibility
6 mi

Hourly Forecast

Date & Time Sat, Sep 18
1:00 AM
Sat, Sep 18
2:00 AM
Sat, Sep 18
3:00 AM
Sat, Sep 18
4:00 AM
Sat, Sep 18
5:00 AM
Sat, Sep 18
6:00 AM
Sat, Sep 18
7:00 AM
Sat, Sep 18
8:00 AM
Sat, Sep 18
9:00 AM
Sat, Sep 18
10:00 AM
Sat, Sep 18
11:00 AM
Sat, Sep 18
12:00 PM
Sat, Sep 18
1:00 PM
Sat, Sep 18
2:00 PM
Sat, Sep 18
3:00 PM
Sat, Sep 18
4:00 PM
Sat, Sep 18
5:00 PM
Sat, Sep 18
6:00 PM
Sat, Sep 18
7:00 PM
Sat, Sep 18
8:00 PM
Sat, Sep 18
9:00 PM
Sat, Sep 18
10:00 PM
Sat, Sep 18
11:00 PM
Sun, Sep 19
12:00 AM
Sun, Sep 19
1:00 AM
Sun, Sep 19
2:00 AM
Sun, Sep 19
3:00 AM
Sun, Sep 19
4:00 AM
Sun, Sep 19
5:00 AM
Sun, Sep 19
6:00 AM
Sun, Sep 19
7:00 AM
Sun, Sep 19
8:00 AM
Sun, Sep 19
9:00 AM
Sun, Sep 19
10:00 AM
Sun, Sep 19
11:00 AM
Sun, Sep 19
12:00 PM
Sun, Sep 19
1:00 PM
Sun, Sep 19
2:00 PM
Sun, Sep 19
3:00 PM
Sun, Sep 19
4:00 PM
Sun, Sep 19
5:00 PM
Sun, Sep 19
6:00 PM
Sun, Sep 19
7:00 PM
Sun, Sep 19
8:00 PM
Sun, Sep 19
9:00 PM
Sun, Sep 19
10:00 PM
Sun, Sep 19
11:00 PM
Mon, Sep 20
12:00 AM
Condition
Clouds

Clouds

Clouds

Clouds

Clouds

Clouds

Rain

Rain

Rain

Rain

Rain

Rain

Rain

Clouds

Rain

Clouds

Rain

Clouds

Clouds

Rain

Rain

Clouds

Rain

Rain

Clouds

Clouds

Clouds

Clouds

Clouds

Clouds

Clouds

Clouds

Clouds

Rain

Rain

Rain

Rain

Rain

Rain

Rain

Clouds

Rain

Clouds

Clouds

Clouds

Clouds

Clouds

Clouds
Temperature 75°F76°F75°F74°F74°F73°F72°F73°F73°F74°F75°F76°F76°F77°F75°F75°F74°F73°F73°F72°F72°F72°F72°F72°F72°F71°F71°F71°F71°F71°F71°F72°F74°F76°F78°F79°F79°F79°F80°F81°F81°F80°F75°F74°F73°F73°F73°F73°F
Feels Like 77°F78°F77°F76°F75°F75°F74°F75°F75°F76°F76°F77°F78°F78°F77°F77°F75°F75°F74°F74°F73°F73°F73°F73°F73°F73°F73°F73°F73°F73°F73°F74°F76°F78°F80°F79°F80°F79°F85°F86°F86°F80°F77°F76°F75°F75°F75°F74°F
Cloudiness 100%100%100%100%100%100%100%100%100%100%100%100%100%100%100%100%100%100%100%100%100%100%100%100%100%100%100%100%100%100%100%100%100%100%100%100%100%89%95%96%95%95%84%38%42%52%57%57%
Visibility 6 mi6 mi6 mi6 mi6 mi6 mi6 mi6 mi6 mi6 mi6 mi6 mi6 mi6 mi6 mi6 mi6 mi6 mi6 mi6 mi6 mi6 mi6 mi6 mi6 mi6 mi6 mi6 mi6 mi6 mi6 mi6 mi6 mi6 mi5 mi5 mi5 mi6 mi6 mi6 mi6 mi6 mi6 mi6 mi6 mi6 mi6 mi6 mi
Precipitation 6%14%12%8%10%12%30%74%77%83%79%79%79%59%78%86%90%70%90%22%39%15%27%40%48%31%29%29%33%33%33%30%32%78%91%93%95%96%98%98%78%98%78%1%0%0%0%0%
Humidity 96%96%97%97%97%97%98%98%98%97%95%91%88%85%89%91%94%95%96%97%97%97%98%98%98%98%98%98%98%98%98%97%93%90%87%85%87%87%84%81%78%86%93%95%96%96%97%98%
Dew Point 74°F75°F74°F74°F73°F72°F71°F72°F72°F73°F73°F72°F72°F71°F72°F72°F72°F71°F71°F71°F71°F71°F71°F71°F70°F70°F70°F70°F70°F70°F70°F71°F72°F73°F74°F74°F74°F74°F74°F74°F73°F75°F73°F72°F72°F72°F72°F72°F
Pressure 30.03"30.03"30.03"30.03"30.03"30.03"30.06"30.06"30.09"30.09"30.09"30.06"30.06"30.06"30.03"30"30"30"30"30.03"30.03"30.03"30.03"30.03"30"30"30"30"30"30"30"30"30.03"30.03"30"30"29.97"29.97"29.94"29.94"29.91"29.94"29.94"29.97"29.97"29.97"29.97"29.97"
Wind Speed 3.8 mph3.8 mph3.6 mph3.1 mph2.8 mph3 mph3.2 mph2.8 mph2.8 mph3.3 mph4.2 mph4.3 mph4.1 mph3.6 mph3.1 mph2.6 mph1.9 mph2.9 mph3.5 mph2.7 mph2.6 mph3.2 mph3.4 mph3.1 mph3.3 mph3.4 mph3.5 mph3.6 mph3.5 mph3.5 mph3.3 mph3.4 mph3.6 mph3.1 mph1.6 mph0.8 mph2 mph3.3 mph4.1 mph4 mph3.6 mph2.3 mph1.3 mph0.1 mph1.2 mph2.6 mph3.6 mph3.7 mph
Wind
Direction
155°
SSE
157°
SSE
152°
SSE
150°
SSE
152°
SSE
150°
SSE
156°
SSE
160°
SSE
159°
SSE
166°
SSE
165°
SSE
162°
SSE
154°
SSE
159°
SSE
151°
SSE
137°
SE
108°
ESE
102°
ESE
119°
ESE
105°
ESE
99°
E
90°
E
78°
ENE
71°
ENE
68°
ENE
67°
ENE
69°
ENE
64°
ENE
60°
ENE
55°
NE
52°
NE
55°
NE
69°
ENE
79°
E
106°
ESE
204°
SSW
257°
WSW
263°
W
264°
W
273°
W
282°
WNW
312°
NW
322°
NW
252°
WSW
170°
S
169°
S
174°
S
182°
S

Daily Forecast

Date High Low Precip. Humidity
Today
Sep 18

Rain
77 °F
72 °F
90%
91%
Sunday
Sep 19

Rain
81 °F
71 °F
98%
85%
Monday
Sep 20

Rain
83 °F
72 °F
100%
79%
Tuesday
Sep 21

Rain
87 °F
72 °F
100%
74%
Wednesday
Sep 22

Rain
82 °F
65 °F
69%
87%
Thursday
Sep 23

Clear
79 °F
55 °F
0%
48%
Friday
Sep 24

Clouds
75 °F
59 °F
0%
59%
Saturday
Sep 25

Rain
77 °F
67 °F
67%
70%
Sunday
Sep 26

Rain
83 °F
67 °F
85%
75%
Monday
Sep 27

Rain
88 °F
67 °F
42%
48%
Tuesday
Sep 28

Clouds
89 °F
68 °F
0%
44%
Wednesday
Sep 29

Rain
85 °F
68 °F
100%
54%
Thursday
Sep 30

Rain
82 °F
65 °F
84%
60%
Friday
Oct 1

Clear
83 °F
62 °F
19%
40%
Saturday
Oct 2

Clear
85 °F
62 °F
0%
40%
Sunday
Oct 3

Clear
86 °F
64 °F
0%
42%

Temperature 8-14 Day Outlook



Precipitation 8-14 Day Outlook




Quick Links
Claiborne Reservoir News
Claiborne Reservoir Photos
Claiborne Reservoir Videos




About Us
Contact Us
Site Map
Search Site
Advertise With Us
   
Claiborne.LakesOnline.com
THE CLAIBORNE RESERVOIR WEBSITE

Copyright 2021, Lakes Online
Privacy    |    Legal